Volver al catálogo

CZ-6A DEB

ActivoSSO
NORAD 55896·DEBRIS·🇨🇳 China

Lanzado Nov 11, 2022 desde Taiyuan Satellite Launch Center

Loading…

Próximos Pases (próximas 24 horas)

TLE

ActualizadoSource: Space-Track

Época: Sep 14, 2026, 00:18 UTC

1 55896U 22151AAU 26257.01316539  .00002719  00000-0  11723-2 0  9999
2 55896  98.8054 270.9851 0037122  27.3055 333.0065 14.24985819193103

Sigue CZ-6A DEB en tiempo real con AllMySat

Download on the App Store